Regional Weather Roundup
Issued by NWS

Home | Current Version | Previous Version | Text Only | Print | Product List | Glossary On
Versions: 1 2 3 4 5 6 7 8 9 10 11 12 13 14 15 16 17 18 19 20 21 22 23 24 25 26 27 28 29 30 31 32 33 34 35 36 37 38 39 40 41 42 43 44 45 46 47 48 49 50
000
ASUS43 KTOP 171708
RWRKS

WEATHER ROUNDUP FOR KANSAS
NATIONAL WEATHER SERVICE GOODLAND KS
1200 PM CDT THU AUG 17 2017

NOTE:  "FAIR" INDICATES FEW OR NO CLOUDS BELOW 12,000 FEET WITH NO
SIGNIFICANT WEATHER AND/OR OBSTRUCTIONS TO VISIBILITY.

KSZ001>006-013>018-027>032-041>047-171800-
NORTHWEST KANSAS

CITY           SKY/WX    TMP DP  RH WIND       PRES   REMARKS
GOODLAND       PTSUNNY   76  59  55 S9        30.12F
HAYS           MOSUNNY   79  55  43 W7        30.07F
HILL CITY      SUNNY     81  53  37 W8        30.08S
RUSSELL        SUNNY     82  59  45 W10       30.05F
$$

KSZ061>065-074>080-084>089-171800-
SOUTHWEST KANSAS

CITY           SKY/WX    TMP DP  RH WIND       PRES   REMARKS
DODGE CITY     SUNNY     78  55  44 SW3       30.11F
ELKHART          N/A     79  64  60 SE7         N/A
GARDEN CITY    MOSUNNY   80  59  48 SW9       30.11F
GREAT BEND     SUNNY     80  57  45 CALM      30.07F
LIBERAL        MOSUNNY   81  60  48 SE6       30.13
PRATT          SUNNY     81  50  33 N7        30.09S
$$

KSZ066>073-081>083-090>101-171800-
SOUTHEAST KANSAS

CITY           SKY/WX    TMP DP  RH WIND       PRES   REMARKS
CHANUTE        SUNNY     80  65  59 NW9       30.03R
COFFEYVILLE    SUNNY     80  68  66 VRB5      30.02S
HUTCHINSON     SUNNY     83  56  39 VRB6      30.05S
MEDICINE LODGE   N/A     83  56  39 VRB3      30.07S
NEWTON         SUNNY     78  61  55 N8        30.06S
PARSONS        SUNNY     80  68  66 VRB6      30.03S
WICHITA INTL   MOSUNNY   82  60  47 N5        30.05S
WICHITA JABRA  SUNNY     80  62  54 NW7       30.05S
WICHITA MCCONL SUNNY     80  59  48 NW9       30.05S
WINFIELD       SUNNY     80  64  58 N3        30.06S
$$

KSZ007>012-019>026-033>040-048>060-102>105-171800-
NORTHEAST KANSAS

CITY           SKY/WX    TMP DP  RH WIND       PRES   REMARKS
CONCORDIA      SUNNY     80  58  46 W12       30.02F
EMPORIA        SUNNY     78  61  55 VRB7      30.03S
LAWRENCE       SUNNY     78  64  61 W13       29.98S
MANHATTAN      SUNNY     79  61  53 VRB6      30.01S
MARYSVILLE     SUNNY     79  57  47 NW10      30.00S
OLATHE IND     SUNNY     76  63  64 W12       29.99S
OLATHE EXE     SUNNY     76  65  68 W9        29.98S
SALINA         SUNNY     84  56  38 N14       30.04F
TOPEKA BILLARD SUNNY     81  62  52 NW9       29.99R
TOPEKA FORBES  SUNNY     79  64  60 NW14      30.00R
$$




USA.gov is the U.S. government's official web portal to all federal, state and local government web resources and services.